Corpus Christi, TX

11:16 AM CDT on July 27, 2017 (GMT -0500)
Corpus Christi International

Weather History for KCRP - July, 2013

Change the Weather History Date:

Wednesday, July 3, 2013

  Actual Average Record
Temperature  
Mean Temperature 84 °F 84 °F  
Max Temperature 95 °F 92 °F 97 °F (1988)
Min Temperature 73 °F 75 °F 71 °F (1996)
Degree Days  
Heating Degree Days 0 0  
Month to date heating degree days 0 0  
Since 1 June heating degree days 0 0  
Since 1 July heating degree days 0 0  
Cooling Degree Days 19 18  
Month to date cooling degree days 62 54  
Year to date cooling degree days 1738 1417  
Since 1 June cooling degree days 720 576  
Growing Degree Days 34 (Base 50)    
Moisture  
Dew Point 66 °F    
Average Humidity 58    
Maximum Humidity 84    
Minimum Humidity 31    
Precipitation  
Precipitation 0.00 in 0.13 in 2.00 in (1940)
Month to date precipitation T 0.38  
Year to date precipitation 7.07 14.01  
Snow  
Snow 0.00 in - - ()
Month to date snowfall 0.0  
Since 1 June snowfall 0.0  
Since 1 July snowfall 0.0  
Snow Depth 0.00 in    
Sea Level Pressure  
Sea Level Pressure 29.96 in    
Wind  
Wind Speed 8 mph (South)    
Max Wind Speed 21 mph    
Max Gust Speed 26 mph    
Visibility 10 miles    
Events      
T = Trace of Precipitation, MM = Missing Value Source: NWS Daily Summary

Daily Weather History Graph

Daily Weather History Graph

Search for Another Location

Airport or City:

Trip Planner

Search our weather history database for the weather conditions in past years. The results will help you decide how hot, cold, wet, or windy it might be!

Date:

Astronomy

Jul. 03, 2013 Rise Set
Actual Time 6:38 AM CDT 8:29 PM CDT
Civil Twilight 6:12 AM CDT 8:56 PM CDT
Nautical Twilight 5:40 AM CDT 9:28 PM CDT
Astronomical Twilight 5:06 AM CDT 10:02 PM CDT
Moon 3:07 AM CDT (7/3) 4:49 PM CDT (7/3)
Length of Visible Light 14h 44m
Length of Day
13h 51m
Waning Crescent, 18% of the Moon is Illuminated
Jul 3
Waning Crescent
Jul 8
New
Jul 15
First Quarter
Jul 22
Full
Jul 29
Last Quarter

Hourly Weather History & Observations

Time (CDT) Temp. Heat Index Dew Point Humidity Pressure Visibility Wind Dir Wind Speed Gust Speed Precip Events Conditions
12:51 AM 75.9 °F - 68.0 °F 76% 29.99 in 10.0 mi SSE 4.6 mph - N/A   Partly Cloudy
1:51 AM 75.0 °F - 68.0 °F 79% 29.98 in 10.0 mi South 6.9 mph - N/A   Partly Cloudy
2:51 AM 75.0 °F - 68.0 °F 79% 29.98 in 10.0 mi SSW 5.8 mph - N/A   Partly Cloudy
3:51 AM 73.9 °F - 68.0 °F 82% 29.97 in 10.0 mi Calm Calm - N/A   Partly Cloudy
4:51 AM 73.9 °F - 68.0 °F 82% 29.97 in 10.0 mi SE 3.5 mph - N/A   Scattered Clouds
5:51 AM 73.0 °F - 68.0 °F 84% 29.97 in 10.0 mi South 4.6 mph - N/A   Scattered Clouds
6:51 AM 73.0 °F - 68.0 °F 84% 29.97 in 10.0 mi SSW 3.5 mph - N/A   Partly Cloudy
7:51 AM 77.0 °F - 68.0 °F 74% 30.00 in 10.0 mi Calm Calm - N/A   Partly Cloudy
8:51 AM 81.0 °F 83.3 °F 66.9 °F 62% 30.01 in 10.0 mi West 6.9 mph - N/A   Scattered Clouds
9:51 AM 84.9 °F 87.6 °F 66.9 °F 55% 30.01 in 10.0 mi West 6.9 mph - N/A   Scattered Clouds
10:51 AM 87.1 °F 89.9 °F 66.9 °F 51% 30.01 in 10.0 mi West 4.6 mph - N/A   Partly Cloudy
11:51 AM 91.0 °F 91.5 °F 62.1 °F 38% 30.00 in 10.0 mi Variable 5.8 mph - N/A   Partly Cloudy
12:51 PM 91.9 °F 90.8 °F 57.9 °F 32% 29.99 in 10.0 mi WSW 4.6 mph - N/A   Partly Cloudy
1:51 PM 93.9 °F 93.2 °F 59.0 °F 31% 29.97 in 10.0 mi SW 3.5 mph - N/A   Partly Cloudy
2:51 PM 95.0 °F 94.8 °F 60.1 °F 31% 29.95 in 10.0 mi SSE 8.1 mph - N/A   Scattered Clouds
3:51 PM 93.0 °F 95.9 °F 66.0 °F 41% 29.94 in 10.0 mi SE 17.3 mph - N/A   Scattered Clouds
4:51 PM 90.0 °F 90.3 °F 62.1 °F 39% 29.92 in 10.0 mi SE 18.4 mph - N/A   Scattered Clouds
5:51 PM 90.0 °F 90.6 °F 63.0 °F 40% 29.91 in 10.0 mi ESE 16.1 mph - N/A   Partly Cloudy
6:51 PM 88.0 °F 88.4 °F 62.1 °F 42% 29.89 in 10.0 mi SE 13.8 mph - N/A   Partly Cloudy
7:51 PM 84.9 °F 87.1 °F 66.0 °F 53% 29.90 in 10.0 mi SE 11.5 mph - N/A   Clear
8:51 PM 82.9 °F 87.0 °F 70.0 °F 65% 29.91 in 10.0 mi SSE 10.4 mph - N/A   Clear
9:51 PM 81.0 °F 85.2 °F 72.0 °F 74% 29.92 in 10.0 mi SSE 9.2 mph - N/A   Clear
10:51 PM 79.0 °F - 72.0 °F 79% 29.94 in 10.0 mi SE 6.9 mph - N/A   Clear
11:51 PM 77.0 °F - 72.0 °F 84% 29.95 in 10.0 mi South 5.8 mph - N/A   Clear